This is the latest recevied weather packets stored in our database for station/object IT9RID. If no packets are shown the sender has not sent any weather packets the latest 10 day(s).
| Time | Temp. | Humidity | Pressure | Rain* | Wind** | Luminosity | Snow |
|---|---|---|---|---|---|---|---|
| 1788046090 | 28.89° C | 34% | 1013.6 hPa | 0 mm | - | - | - |
| 1788045490 | 28.89° C | 34% | 1013.6 hPa | 0 mm | - | - | - |
| 1788044890 | 29.44° C | 34% | 1013.6 hPa | 0 mm | - | - | - |
| 1788044289 | 28.33° C | 36% | 1013.6 hPa | 0 mm | - | - | - |
| 1788043689 | 28.33° C | 36% | 1013.6 hPa | 0 mm | - | - | - |
| 1788043089 | 28.33° C | 37% | 1013.8 hPa | 0 mm | - | - | - |
| 1788042489 | 28.33° C | 37% | 1014 hPa | 0 mm | - | - | - |
| 1788041289 | 28.89° C | 36% | 1014 hPa | 0 mm | - | - | - |
| 1788040688 | 28.89° C | 36% | 1014.1 hPa | 0 mm | - | - | - |
| 1788040089 | 28.89° C | 36% | 1014.2 hPa | 0 mm | - | - | - |
| 1788039488 | 29.44° C | 35% | 1014.2 hPa | 0 mm | - | - | - |
| 1788038888 | 29.44° C | 35% | 1014.2 hPa | 0 mm | - | - | - |
| 1788038291 | 30° C | 34% | 1014.3 hPa | 0 mm | - | - | - |
| 1788037688 | 29.44° C | 36% | 1014.4 hPa | 0 mm | - | - | - |
| 1788037087 | 30° C | 35% | 1014.5 hPa | 0 mm | - | - | - |
| 1788036487 | 30° C | 35% | 1014.5 hPa | 0 mm | - | - | - |
| 1788035887 | 29.44° C | 36% | 1014.4 hPa | 0 mm | - | - | - |
| 1788035287 | 30° C | 36% | 1014.4 hPa | 0 mm | - | - | - |
| 1788034687 | 30° C | 36% | 1014.6 hPa | 0 mm | - | - | - |
| 1788034087 | 30° C | 37% | 1014.5 hPa | 0 mm | - | - | - |
| 1788033488 | 30° C | 37% | 1014.5 hPa | 0 mm | - | - | - |
| 1788032286 | 30° C | 40% | 1014.6 hPa | 0 mm | - | - | - |
| 1788031686 | 29.44° C | 42% | 1014.6 hPa | 0 mm | - | - | - |
| 1788031086 | 30° C | 44% | 1014.6 hPa | 0 mm | - | - | - |
| 1788030486 | 30.56° C | 44% | 1014.6 hPa | 0 mm | - | - | - |
* Rain latest hour (hover to see other rain measurements)
** Current wind speed in m/s (hover to see current wind gust speed)